www.pogodaiklimat.ru

Погода и климат >> Архив погоды >> Ирландия >> Roches Point


ПОГОДА в Roches Point

  • Прогноз погоды в Roches Point
  • Монитор погоды в Roches Point
  • Климат города

АРХИВ ПОГОДЫ в Roches Point

Время (UTC), дата Ветер
(напр.,м/с)
 
Видим.   Явления Облачность Т
(С)
Тd
(С)
f
(%)
Тe
(С)
Тes
(С)
Комфортность P
(гПа)
Po
(гПа)
Тmin
(С)
Tmax
(С)
R
(мм)
R24
(мм)
S
(см)
10 17.04 Ю 14
{18}
6000 м дымка н/о +11.3 +8.9 85 +7 +7 1004.2 999.3
11 17.04 Ю 13 6000 м дымка н/о +11.3 +9.1 86 +7 +7 1005.3 1000.3
12 17.04 Ю 12 6000 м дымка н/о +11.8 +9.1 84 +8 +8 1006.3 1001.4
14 17.04 Ю 11 6000 м дымка н/о +11.7 +9.7 88 +8 +8 1008.1 1003.1
13 17.04 Ю 12 6000 м дымка н/о +11.5 +9.6 88 +7 +7 1007.1 1002.2
15 17.04 Ю 10 5000 м дымка н/о +11.1 +9.6 90 +7 +7 1008.8 1003.8
16 17.04 Ю 11 5000 м дымка н/о +11.2 +9.7 90 +7 +7 1009.4 1004.4
17 17.04 Ю 14
{18}
6000 м дымка н/о +10.8 +9.5 92 +6 +6 1009.8 1004.8
18 17.04 Ю 11
{19}
5000 м дымка н/о +10.6 +9.4 92 +6 +6 1010.6 1005.6 +11.9
20 17.04 Ю 10 5000 м дымка н/о +10.1 +9.2 94 +6 +6 1012.1 1007.1
19 17.04 Ю 10 5000 м дымка н/о +10.1 +9.2 94 +6 +6 1011.2 1006.2
21 17.04 Ю 10 5000 м дымка н/о +10.1 +9.3 95 +5 +5 1012.7 1007.7
22 17.04 Ю 9 6000 м дымка н/о +9.9 +9.1 95 +5 +5 1013.0 1008.0
23 17.04 Ю 8 6000 м слаб. ливневой дождь н/о +10.0 +9.2 95 +6 +6 1013.7 1008.8
00 18.04 Ю 8 5000 м слаб. ливневой дождь {дымка} н/о +10.1 +9.5 96 +6 +6 1013.9 1008.9 0.0
02 18.04 Ю 8 4300 м морось {дождь} н/о +10.0 +9.7 98 +6 +6 1014.1 1009.1
01 18.04 Ю 8 2000 м сильн. морось н/о +9.9 +9.6 98 +6 +6 1014.3 1009.3
03 18.04 Ю 6 4400 м дымка {дождь, морось} н/о +9.8 +9.6 99 +6 +6 1014.6 1009.6
04 18.04 Ю 4 5000 м дымка н/о +9.3 +9.0 98 +6 +6 1015.0 1010.0
05 18.04 Ю 9 9000 м дымка н/о +9.9 +9.5 97 +5 +5 1015.5 1010.5
06 18.04 Ю 11 4100 м дымка {дождь, морось} н/о +10.4 +9.9 97 +6 +6 1015.7 1010.7 +9.2 2
08 18.04 Ю 9 400 м слаб. дождь ?/? +10.1 +9.9 99 +6 +6 1016.4 1011.4
07 18.04 Ю 11 700 м туман ?/? +10.4 +10.1 98 +6 +6 1016.2 1011.2
09 18.04 Ю 10 1200 м в посл. час дождь {туман} ?/? +10.4 +10.2 99 +6 +6 1016.4 1011.4
10 18.04 Ю 12 6000 м дымка н/о +11.2 +10.4 95 +7 +7 1016.6 1011.6
11 18.04 Ю 10 6000 м дымка н/о +11.4 +10.2 92 +7 +7 1016.9 1012.0
12 18.04 ЮВ 12 7000 м дымка {дождь, туман} н/о +11.2 +10.0 92 +7 +7 1016.8 1011.8 1
14 18.04 ЮВ 10 9000 м дымка н/о +11.0 +9.4 90 +7 +7 1016.6 1011.6
13 18.04 ЮВ 9 7000 м дымка н/о +11.3 +9.8 90 +7 +7 1016.9 1012.0
15 18.04 ЮВ 11 9000 м дымка н/о +10.9 +9.4 90 +6 +6 1016.4 1011.4
16 18.04 ЮВ 12 8000 м дымка н/о +10.8 +9.4 91 +6 +6 1016.0 1011.1
17 18.04 Ю 10 8000 м дымка н/о +10.8 +9.6 92 +7 +7 1015.8 1010.8
18 18.04 Ю 11 7000 м дымка н/о +10.5 +9.5 94 +6 +6 1015.5 1010.5 +11.8 1
20 18.04 Ю 10 7000 м дымка н/о +10.5 +9.7 95 +6 +6 1016.8 1011.8
19 18.04 Ю 11 8000 м дымка н/о +10.5 +9.6 94 +6 +6 1015.9 1010.9
21 18.04 Ю 10 6000 м дымка н/о +10.2 +9.4 95 +6 +6 1017.6 1012.6
22 18.04 Ю 9 6000 м дымка н/о +10.1 +9.4 95 +6 +6 1017.9 1012.9
23 18.04 Ю 5 5000 м дымка н/о +9.9 +9.4 97 +7 +7 1018.1 1013.1
00 19.04 Ю 6 3000 м дымка н/о +9.9 +9.5 97 +6 +6 1018.2 1013.2
02 19.04 Ю 9 700 м туман {ливн. осадки} ?/? +10.1 +9.8 98 +6 +6 1017.8 1012.8
01 19.04 Ю 8 2500 м в посл. час морось {ливн. осадки} ?/? +10.0 +9.6 97 +6 +6 1018.0 1013.0
03 19.04 Ю 9 100 м слаб. ливневой дождь ?/? +10.1 +9.9 99 +6 +6 1018.3 1013.3
04 19.04 Ю 6 100 м слаб. дождь ?/? +9.8 +9.6 99 +6 +6 1018.4 1013.4
05 19.04 Ю 7 100 м слаб. дождь ?/? +9.7 +9.6 99 +6 +6 1018.8 1013.8
06 19.04 Ю 6 100 м слаб. дождь {ливн. осадки} ?/? +9.7 +9.5 99 +6 +6 1019.5 1014.5 +9.7 0.3
08 19.04 Ю 5 5000 м дымка н/о +10.0 +9.7 98 +7 +7 1021.0 1015.9
07 19.04 Ю 4 1500 м в посл. час дождь {ливн. осадки} ?/? +9.8 +9.5 98 +7 +7 1020.3 1015.3
09 19.04 Ю 7 700 м туман {ливн. осадки} ?/? +10.3 +10.1 99 +6 +6 1021.6 1016.6
10 19.04 Ю 6 3400 м в посл. час дождь {ливн. осадки} н/о +10.6 +10.3 98 +7 +7 1022.2 1017.2
11 19.04 Ю 5 5000 м дымка н/о +10.5 +10.2 98 +7 +7 1022.9 1017.9
12 19.04 Ю 5 8000 м дымка {ливн. осадки, туман} н/о +11.2 +10.7 97 +8 +8 1023.3 1018.3 0.1
14 19.04 Ю 6 13 км н/о +11.2 +10.6 96 +8 +8 1023.5 1018.4
13 19.04 Ю 5 7000 м дымка ?/? +11.0 +10.4 96 +8 +8 1023.3 1018.2
15 19.04 Ю 6 17 км н/о +11.5 +10.5 94 +8 +8 1023.8 1018.8
16 19.04 Ю 6 13 км н/о +11.1 +10.1 94 +8 +8 1024.1 1019.1
17 19.04 Ю 6 8000 м дымка н/о +10.5 +10.0 97 +7 +7 1024.4 1019.3
18 19.04 Ю 5 10 км в посл. час туман {дымка} н/о +10.5 +10.0 97 +7 +7 1024.3 1019.2 +11.7 0.1
20 19.04 Ю 4 7000 м дымка н/о +9.9 +9.1 95 +7 +7 1025.1 1020.0
19 19.04 ЮЗ 6 17 км н/о +11.3 +9.5 89 +8 +8 1024.3 1019.3
21 19.04 ЮЗ 3 6000 м дымка н/о +9.5 +8.9 96 +7 +7 1025.4 1020.3
22 19.04 Ю 2 11 км н/о +9.1 +8.0 93 +7 +7 1025.5 1020.5
23 19.04 З 2 17 км н/о +9.3 +7.7 90 +8 +8 1025.7 1020.7
00 20.04 СЗ 2 14 км н/о +8.7 +7.4 92 +7 +7 1025.8 1020.7
02 20.04 СЗ 3 100 м слаб. ливневой дождь ?/? +7.0 +6.5 97 +4 +4 1025.8 1020.7
01 20.04 СЗ 3 18 км н/о +8.5 +7.0 90 +6 +6 1025.7 1020.6
03 20.04 СЗ 3 10 км в посл. час дождь {ливн. осадки} н/о +7.6 +7.1 97 +5 +5 1025.7 1020.6
04 20.04 З 3 100 м слаб. дождь ?/? +6.9 +6.5 97 +4 +4 1025.7 1020.6
05 20.04 С 1 100 м слаб. ливневой дождь ?/? +6.5 +6.2 98 +5 +5 1025.7 1020.6
06 20.04 З 1 25 км в посл. час дождь {ливн. осадки} н/о +6.0 +5.6 97 +5 +5 1025.9 1020.8 +5.8 0.2
08 20.04 ЮЗ 3 4000 м в посл. час туман н/о +7.9 +7.5 97 +5 +5 1026.6 1021.5
07 20.04 ЮВ 2 9000 м дымка н/о +7.4 +6.8 96 +5 +5 1026.2 1021.1
09 20.04 ЮЗ 2 6000 м дымка {туман} н/о +8.4 +8.0 97 +6 +6 1026.8 1021.8
10 20.04 Ю 3 15 км н/о +9.8 +9.0 95 +7 +7 1026.9 1021.8
11 20.04 Ю 4 16 км н/о +10.5 +9.3 92 +8 +8 1026.9 1021.9
12 20.04 Ю 4 16 км {туман, дымка} н/о +11.4 +9.8 90 +9 +9 1026.8 1021.8
14 20.04 Ю 5 17 км н/о +12.0 +10.6 91 +9 +9 1026.2 1021.2
13 20.04 Ю 6 24 км н/о +11.8 +10.0 89 +9 +9 1026.4 1021.4
15 20.04 Ю 6 13 км н/о +11.9 +10.2 89 +9 +9 1025.7 1020.7
16 20.04 Ю 5 19 км н/о +11.8 +9.8 88 +9 +9 1025.4 1020.4
17 20.04 Ю 6 18 км н/о +11.3 +9.2 87 +8 +8 1025.1 1020.1
18 20.04 Ю 6 18 км н/о +11.1 +8.6 85 +8 +8 1024.8 1019.7 +12.3
20 20.04 ЮЗ 4 29 км н/о +10.4 +6.6 77 +8 +8 1024.9 1019.8
19 20.04 Ю 5 20 км н/о +10.6 +7.5 81 +8 +8 1024.7 1019.7
21 20.04 ЮЗ 3 35 км н/о +10.1 +6.6 79 +8 +8 1024.8 1019.8
22 20.04 С 2 40 км н/о +9.9 +6.8 81 +8 +8 1024.5 1019.5
23 20.04 СЗ 2 35 км н/о +9.1 +7.1 87 +7 +7 1024.1 1019.1
00 21.04 С 3 29 км н/о +8.8 +7.0 88 +6 +6 1023.8 1018.7
02 21.04 С 3 35 км н/о +7.8 +6.1 89 +5 +5 1022.9 1017.8
01 21.04 С 3 26 км н/о +8.2 +6.4 88 +5 +5 1023.2 1018.2
03 21.04 С 3 25 км н/о +7.0 +5.6 91 +4 +4 1022.4 1017.3
04 21.04 С 3 27 км н/о +6.4 +5.2 92 +3 +3 1021.8 1016.7
05 21.04 С 2 30 км н/о +5.7 +4.7 93 +3 +3 1021.4 1016.4
06 21.04 С 2 27 км н/о +5.8 +4.7 93 +3 +3 1021.2 1016.1 +5.4
08 21.04 С 1 19 км н/о +7.7 +6.7 93 +7 +7 1020.4 1015.3
07 21.04 С 2 19 км н/о +6.5 +5.8 95 +4 +4 1020.8 1015.7
09 21.04 ЮВ 2 23 км н/о +10.2 +8.0 86 +9 +9 1019.7 1014.7
10 21.04 ЮВ 3 17 км н/о +10.1 +8.0 87 +8 +8 1019.3 1014.3
11 21.04 Ю 3 19 км н/о +10.9 +9.2 89 +9 +9 1018.8 1013.8
12 21.04 Ю 3 30 км н/о +11.4 +8.7 83 +10 +10 1017.8 1012.8
14 21.04 Ю 4 35 км н/о +12.1 +8.5 79 +10 +10 1016.2 1011.2
13 21.04 ЮВ 3 20 км н/о +11.9 +8.7 81 +10 +10 1017.1 1012.1
15 21.04 ЮВ 4 45 км н/о +12.2 +6.4 68 +10 +10 1015.1 1010.2
16 21.04 Ю 4 27 км н/о +11.8 +7.8 76 +10 +10 1014.1 1009.2
17 21.04 Ю 5 30 км н/о +11.2 +7.0 75 +9 +9 1013.2 1008.3
18 21.04 Ю 5 30 км н/о +10.5 +7.9 84 +8 +8 1012.4 1007.4 +12.4
20 21.04 Ю 4 28 км н/о +9.4 +7.6 89 +6 +6 1011.7 1006.8
19 21.04 Ю 4 26 км н/о +9.7 +8.0 89 +7 +7 1011.8 1006.8
21 21.04 Ю 5 50 км н/о +9.8 +8.3 90 +7 +7 1011.2 1006.2
22 21.04 Ю 5 40 км н/о +10.0 +8.3 89 +7 +7 1010.5 1005.6
23 21.04 Ю 5 35 км н/о +10.2 +8.6 90 +7 +7 1010.3 1005.3
00 22.04 Ю 5 22 км слаб. морось н/о +10.2 +8.4 89 +7 +7 1009.7 1004.7 0.1
02 22.04 ЮЗ 6 6000 м слаб. дождь н/о +9.7 +9.3 97 +6 +6 1008.2 1003.2
01 22.04 Ю 6 4500 м слаб. дождь н/о +9.7 +9.1 96 +6 +6 1009.0 1004.0
03 22.04 ЮЗ 6 13 км морось {дождь} н/о +10.0 +9.6 97 +6 +6 1007.7 1002.7
04 22.04 ЮЗ 5 16 км в посл. час морось н/о +10.2 +9.8 97 +7 +7 1007.4 1002.5
05 22.04 З 4 40 км н/о +10.0 +9.2 95 +7 +7 1007.5 1002.5
06 22.04 З 5 40 км {дождь, морось} н/о +9.4 +7.1 86 +6 +6 1007.9 1002.9 +9.4 3
08 22.04 З 6 40 км н/о +9.8 +7.1 83 +6 +6 1009.1 1004.2
07 22.04 СЗ 4 45 км н/о +9.1 +6.9 86 +6 +6 1008.7 1003.7
09 22.04 З 6 40 км н/о +10.6 +6.3 75 +7 +7 1009.3 1004.4
10 22.04 СЗ 8 45 км н/о +11.3 +5.6 68 +8 +8 1009.6 1004.7
11 22.04 З 9 30 км н/о +12.2 +6.9 70 +9 +9 1009.6 1004.7
12 22.04 З 9 40 км н/о +13.0 +5.6 61 +10 +10 1009.5 1004.5
14 22.04 З 10 29 км н/о +12.6 +6.6 67 +9 +9 1010.0 1005.1
13 22.04 З 8 35 км н/о +12.7 +6.0 64 +10 +10 1009.7 1004.8
15 22.04 СЗ 8 35 км н/о +12.7 +6.3 65 +10 +10 1010.0 1005.1
16 22.04 З 8 35 км н/о +12.7 +6.0 64 +10 +10 1010.3 1005.4
17 22.04 З 8 45 км н/о +13.3 +6.4 63 +11 +11 1010.9 1006.0
18 22.04 З 7 35 км н/о +12.6 +6.6 67 +10 +10 1011.3 1006.4 +13.8
20 22.04 З 6 40 км н/о +10.0 +6.8 80 +7 +7 1013.0 1008.0
19 22.04 З 7 35 км н/о +11.2 +6.5 73 +8 +8 1012.2 1007.2
21 22.04 З 6 30 км н/о +9.0 +6.7 85 +5 +5 1013.6 1008.6
22 22.04 З 4 50 км н/о +8.4 +6.4 87 +5 +5 1014.7 1009.7
23 22.04 З 4 40 км н/о +8.9 +6.6 85 +6 +6 1014.6 1009.6
00 23.04 ЮЗ 5 40 км н/о +8.6 +6.7 88 +5 +5 1015.0 1010.0
02 23.04 З 5 30 км н/о +8.6 +6.4 86 +5 +5 1015.4 1010.4
01 23.04 З 5 35 км н/о +8.7 +6.5 86 +5 +5 1015.2 1010.2
03 23.04 З 5 40 км н/о +8.8 +6.1 83 +5 +5 1015.4 1010.4
04 23.04 ЮЗ 5 30 км н/о +8.6 +6.2 85 +5 +5 1015.5 1010.5
05 23.04 ЮЗ 5 35 км н/о +8.8 +6.0 83 +5 +5 1015.1 1010.1
06 23.04 З 5 45 км н/о +8.9 +7.1 88 +5 +5 1015.5 1010.5 +8.3
08 23.04 ЮЗ 6 23 км в посл. час морось н/о +10.0 +7.7 86 +7 +7 1015.3 1010.3
07 23.04 ЮЗ 5 35 км слаб. ливневой дождь н/о +9.3 +7.5 89 +6 +6 1015.3 1010.3
09 23.04 ЮЗ 8 21 км слаб. ливневой дождь {морось} н/о +9.6 +7.8 89 +5 +5 1015.1 1010.1
10 23.04 Ю 7 12 км н/о +9.6 +8.3 92 +6 +6 1014.7 1009.7
11 23.04 ЮЗ 9 5000 м в посл. час морось н/о +9.7 +9.0 95 +5 +5 1014.1 1009.1
12 23.04 ЮЗ 11 6000 м дымка {ливн. осадки, морось} н/о +10.2 +9.6 96 +5 +5 1013.8 1008.8 0.1
14 23.04 ЮЗ 11 12 км н/о +11.7 +10.7 94 +8 +8 1013.2 1008.2
13 23.04 ЮЗ 12 11 км н/о +11.0 +10.3 95 +6 +6 1013.1 1008.1
15 23.04 ЮЗ 7 18 км н/о +13.0 +11.7 92 +10 +10 1013.0 1008.0
16 23.04 З 9 29 км н/о +14.4 +9.7 73 +12 +12 1012.6 1007.7
17 23.04 З 9 50 км н/о +15.0 +9.6 70 +13 +13 1013.2 1008.3
18 23.04 З 7 22 км н/о +13.6 +7.8 68 +11 +11 1013.4 1008.5 +15.2 0.1
20 23.04 З 3 50 км н/о +11.5 +5.6 67 +10 +10 1015.2 1010.2
19 23.04 СЗ 6 40 км н/о +12.7 +5.3 61 +10 +10 1014.3 1009.3
21 23.04 ЮЗ 4 30 км н/о +10.5 +6.9 78 +8 +8 1015.7 1010.7
22 23.04 ЮЗ 4 27 км н/о +9.9 +7.1 83 +7 +7 1015.8 1010.8
23 23.04 ЮЗ 3 28 км н/о +9.6 +7.5 87 +7 +7 1015.8 1010.8
00 24.04 ЮЗ 4 16 км н/о +9.3 +8.0 92 +6 +6 1015.6 1010.6
02 24.04 ЮЗ 6 15 км слаб. ливневой дождь н/о +9.8 +8.6 92 +6 +6 1014.9 1009.9
01 24.04 ЮЗ 4 15 км н/о +9.7 +8.4 92 +7 +7 1015.2 1010.3
03 24.04 ЮЗ 5 17 км слаб. дождь {ливн. осадки} н/о +9.9 +8.6 92 +7 +7 1014.7 1009.7
04 24.04 ЮЗ 4 10 км морось н/о +9.6 +8.6 93 +7 +7 1014.2 1009.2
05 24.04 ЮЗ 3 8000 м слаб. дождь н/о +9.3 +8.4 94 +7 +7 1014.1 1009.1
06 24.04 ЮЗ 3 10 км слаб. дождь {ливн. осадки} н/о +9.0 +8.1 94 +6 +6 1013.4 1008.4 +9.0 3
08 24.04 Ю 2 5000 м слаб. ливневой дождь н/о +8.7 +7.8 94 +7 +7 1011.9 1006.9
07 24.04 ЮЗ 4 21 км морось {дождь} н/о +8.6 +7.8 95 +5 +5 1013.0 1008.0
09 24.04 В 2 5000 м дождь {ливн. осадки} н/о +8.5 +7.8 95 +6 +6 1011.1 1006.1

 

Местоположение метеостанции Roches Point (Ирландия): широта 51.80 долгота -8.25 высота над уровнем моря 41 м.

В архиве по умолчанию представлена погода в Roches Point за последнюю неделю. Архивные данные за месяц целиком и за предыдущие месяцы, начиная с января 2011 года, Вы можете получить, выбрав интересующий диапазон дат из раскрывающегося списка и нажав кнопку "Ввод!".


*Определитесь, кто Вы:
робот инопланетянин человек

Внимание! Время в таблицах - всемирное. Для получения местного времени необходимо прибавить поправку, которая в Roches Point равна 0 ч.

Смотрите также архив погоды в соседних городах и на ближайших метеорологических станциях:

Погода в Cork Airport (Ирландия) (17 км)
Погода в Sherkin Island (Ирландия) (89 км)
Погода в Shannon Airport (Ирландия) (109 км)
Погода в Johnstown Castle (Ирландия) (132 км)
Погода в Gurteen (Ирландия) (138 км)
Погода в Valentia Observatory (Ирландия) (138 км)
Погода в Oak Park, Carlow (Ирландия) (149 км)
Погода в Mace Head (Ирландия) (203 км)
Погода в Mullingar (Ирландия) (203 км)
Погода в Casement Aerodrome (Ирландия) (208 км)

Пояснения к столбцам:

Ветер - указаны скорость ветра в м/с - средняя за 10 мин, порывы в срок и между сроками (в фигурных скобках) и направление, откуда дует ветер: С - северный, СВ - северо-восточный, В - восточный, ЮВ - юго-восточный, Ю - южный, ЮЗ - юго-западный, З - западный, СЗ - северо-западный.
Видимость - горизонтальная дальность видимости в метрах или километрах. При видимости от 1 до 10 км при отсутствии осадков обычно наблюдается дымка, при ухудшении видимости до 1 км и менее - туман. В сухую погоду видимость может ухудшаться дымом, пылью или мглою.
Явления - указаны атмосферные явления, наблюдавшиеся в срок или в последний час перед сроком; фигурными скобками обозначены явления, наблюдавшиеся между сроками (за 1-3 часа до срока); квадратными скобками обозначены град или гололедные отложения с указанием их диаметра в мм.
Облачность - указаны через наклонную черту общая и нижняя облачность в баллах и высота нижней границы облаков в метрах; квадратными скобками обозначены формы облаков: Ci - перистые, Cs - перисто-слоистые, Cc - перисто-кучевые, Ac - высококучевые, As - высокослоистые, Sc - слоисто-кучевые, Ns - слоисто-дождевые, Cu - кучевые, Cb - кучево-дождевые. Подробнее классификацию облаков см. в Атласе облаков (PDF).
T - Температура воздуха - температура, измеренная на высоте 2 м над землей.
Td - Температура точки росы - температура, при понижении до которой содержащийся в воздухе водяной пар достигнет насыщения.
f - Относительная влажность воздуха - влажноcть воздуха, измеренная на высоте 2 м над землей.
Te - Эффективная температура - температура, которую ощущает одетый по сезону человек в тени. Характеристика душности погоды. При расчете учитывается влияние влажности воздуха и скорости ветра на теплоощущения человека.
Tes - Эффективная температура на солнце - температура, которую ощущает человек, с поправкой на солнечный нагрев. Характеристика знойности погоды. Зависит от высоты солнца над горизонтом, облачности и скорости ветра. Ночью, в пасмурную погоду, а также при ветре 12 м/с и более поправка равна нулю.
P - Атмосферное давление - приведенное к уровню моря атмосферное давление.
Po - Атмосферное давление - измеренное на уровне метеостанции атмосферное давление.
Tmin - Минимальная температура - минимум температуры воздуха на высоте 2 м над землей.
Tmax - Максимальная температура - максимум температуры воздуха на высоте 2 м над землей.
R - Количество осадков - Количество выпавших осадков за период времени, мм. При наведении курсора мыши на число - период времени, за который выпало указанное количество осадков.
R24 - Количество осадков - Количество выпавших осадков за 24 часа, мм.
S - Снежный покров - Высота снежного покрова, см. При наведении курсора мыши на число - состояние снежного покрова и степень покрытия местности в баллах.